Baudette, MN

5:29 PM CST on February 09, 2016 (GMT -0600)
Baudette International

Weather History for KBDE - October, 2012

Change the Weather History Date:

Wednesday, October 10, 2012

  Actual Average (KINL) Record (KINL)
Temperature  
Mean Temperature 36 °F 44 °F  
Max Temperature 43 °F 54 °F 80 °F (1955)
Min Temperature 30 °F 33 °F 18 °F (1979)
Degree Days  
Heating Degree Days 28 21  
Month to date heating degree days 197  
Since 1 July heating degree days 731  
Cooling Degree Days 0 0  
Month to date cooling degree days 0  
Year to date cooling degree days 192  
Moisture  
Dew Point 29 °F    
Average Humidity 80    
Maximum Humidity 93    
Minimum Humidity 51    
Precipitation  
Precipitation 0.00 in 0.07 in 1.90 in (1949)
Month to date precipitation 0.78  
Year to date precipitation 20.73  
Snow  
Snow 0.00 in 0.00 in T in (2012)
Month to date snowfall 0.3  
Since 1 July snowfall 0.4  
Since 1 September snowfall 0.4  
Snow Depth -    
Sea Level Pressure  
Sea Level Pressure 29.95 in    
Wind  
Wind Speed 4 mph (WSW)    
Max Wind Speed 12 mph    
Max Gust Speed 17 mph    
Visibility 10 miles    
Events      
T = Trace of Precipitation, MM = Missing Value Source: NWS Daily Summary

Daily Weather History Graph

Daily Weather History Graph

Search for Another Location

Airport or City:

Trip Planner

Search our weather history database for the weather conditions in past years. The results will help you decide how hot, cold, wet, or windy it might be!

Date:

Astronomy

Oct. 10, 2012 Rise Set
Actual Time 7:31 AM CDT 6:37 PM CDT
Civil Twilight 7:00 AM CDT 7:09 PM CDT
Nautical Twilight 6:23 AM CDT 7:45 PM CDT
Astronomical Twilight 5:47 AM CDT 8:22 PM CDT
Moon 1:44 AM CDT (10/10) 4:02 PM CDT (10/10)
Length of Visible Light 12h 08m
Length of Day
11h 05m
Waning Crescent, 27% of the Moon is Illuminated
Oct 10
Waning Crescent
Oct 15
New
Oct 21
First Quarter
Oct 29
Full
Nov 6
Last Quarter

Hourly Weather History & Observations

Time (CDT) Temp. Windchill Dew Point Humidity Pressure Visibility Wind Dir Wind Speed Gust Speed Precip Events Conditions
12:02 AM 33.8 °F 29.6 °F 30.2 °F 87% 29.90 in 10.0 mi WNW 4.6 mph - N/A   Overcast
12:32 AM 33.8 °F 29.6 °F 28.4 °F 81% 29.90 in 10.0 mi West 4.6 mph - N/A   Overcast
12:53 AM 34.0 °F - 28.0 °F 79% 29.95 in 10.0 mi Calm Calm - N/A   Overcast
1:07 AM 33.8 °F - 30.2 °F 87% 29.90 in 10.0 mi Calm Calm - N/A   Overcast
1:53 AM 32.0 °F 28.7 °F 28.9 °F 88% 29.96 in 10.0 mi WNW 3.5 mph - 0.00 in   Mostly Cloudy
2:53 AM 32.0 °F - 28.9 °F 88% 29.96 in 10.0 mi Calm Calm - N/A   Overcast
3:53 AM 30.9 °F 27.5 °F 28.9 °F 92% 29.96 in 10.0 mi West 3.5 mph - N/A   Overcast
4:53 AM 30.9 °F - 28.9 °F 92% 29.97 in 10.0 mi Calm Calm - N/A   Overcast
5:53 AM 30.9 °F - 28.9 °F 92% 29.97 in 10.0 mi Calm Calm - N/A   Overcast
6:39 AM 30.2 °F 26.7 °F 28.4 °F 93% 29.93 in 10.0 mi Variable 3.5 mph - N/A   Overcast
6:53 AM 30.9 °F 26.2 °F 28.0 °F 89% 29.98 in 10.0 mi West 4.6 mph - N/A   Overcast
7:35 AM 30.2 °F 24.3 °F 28.4 °F 93% 29.93 in 10.0 mi WSW 5.8 mph - N/A   Mostly Cloudy
7:53 AM 30.0 °F - 28.0 °F 92% 29.98 in 10.0 mi Calm Calm - N/A   Scattered Clouds
8:53 AM 30.9 °F 27.5 °F 28.0 °F 89% 29.98 in 10.0 mi WNW 3.5 mph - N/A   Mostly Cloudy
9:43 AM 32.0 °F 28.7 °F 28.4 °F 87% 29.95 in 10.0 mi Variable 3.5 mph - N/A   Overcast
9:53 AM 32.0 °F 26.4 °F 28.9 °F 88% 29.99 in 10.0 mi Variable 5.8 mph - N/A   Overcast
10:14 AM 33.8 °F - 30.2 °F 87% 29.95 in 10.0 mi Calm Calm - N/A   Scattered Clouds
10:53 AM 36.0 °F 31.1 °F 30.0 °F 79% 29.99 in 10.0 mi SW 5.8 mph - N/A   Clear
11:53 AM 39.9 °F 34.5 °F 28.0 °F 63% 29.98 in 10.0 mi WSW 8.1 mph - N/A   Scattered Clouds
12:53 PM 42.1 °F 38.4 °F 25.0 °F 51% 29.96 in 10.0 mi WSW 5.8 mph - N/A   Overcast
1:53 PM 42.1 °F 37.1 °F 27.0 °F 55% 29.94 in 10.0 mi SW 8.1 mph - N/A   Overcast
2:53 PM 42.1 °F 36.6 °F 28.9 °F 60% 29.92 in 10.0 mi SW 9.2 mph - N/A   Overcast
3:53 PM 43.0 °F 38.2 °F 28.0 °F 56% 29.91 in 10.0 mi West 8.1 mph 17.3 mph N/A   Overcast
4:53 PM 41.0 °F 34.3 °F 28.9 °F 62% 29.91 in 10.0 mi WSW 11.5 mph - N/A   Overcast
5:53 PM 39.9 °F 35.1 °F 28.0 °F 63% 29.93 in 10.0 mi WSW 6.9 mph - N/A   Overcast
6:53 PM 39.0 °F 33.4 °F 28.0 °F 65% 29.93 in 10.0 mi West 8.1 mph - N/A   Overcast
7:53 PM 37.0 °F 31.6 °F 28.9 °F 73% 29.94 in 10.0 mi SW 6.9 mph - N/A   Overcast
8:53 PM 36.0 °F 30.3 °F 30.0 °F 79% 29.94 in 10.0 mi SW 6.9 mph - N/A   Overcast
9:53 PM 36.0 °F 33.3 °F 30.9 °F 82% 29.94 in 10.0 mi Variable 3.5 mph - N/A   Overcast
10:53 PM 36.0 °F 30.3 °F 32.0 °F 86% 29.94 in 10.0 mi WSW 6.9 mph - N/A   Overcast
11:53 PM 34.0 °F - 30.9 °F 89% 29.94 in 10.0 mi Calm Calm - N/A   Partly Cloudy